User: anonymous   Login
Location: NJAA Observatory
(40.6819°N, 74.8979°W)
Time: 07:24:00
(UTC-04:00)
Language:

Meteor 1-28 Rocket - Orbit

View from above orbital plane
View from above orbital plane
View from above satellite
View from above satellite

Ground track
Ground track

The orbit data is extracted from the following two-line orbital elements,

1 10114U 77057B   16178.50273232  .00000403  00000-0  23995-4 0  9999
2 10114  97.2031  12.8033 0015707 119.0366 241.2443 15.16291433129641
Epoch (UTC): 26 June 2016 12:03:56
Eccentricity: 0.0015707
inclination: 97.2031°
perigee height: 506 km
apogee height: 528 km
right ascension of ascending node: 12.8033°
argument of perigee: 119.0366°
revolutions per day: 15.16291433
mean anomaly at epoch: 241.2443°
orbit number at epoch: 12964

The dashed part of the orbit path shows where the satellite is in the earth's shadow,  

DLR